Theta_e
354 351 352 355 357 355 353 346 345 346 347 345 346 347 339 337 337 342 349 367 365 364 366 365 364 362 362 363 363 364 364 361 362 361 361 361 360 359 358 357 358 357 358
356 354 353 355 350 349 345 346 348 349 347 348 345 340 342 341 338 338 344 352 363 365 365 365 365 363 362 362 361 360 363 362 361 362 360 360 360 359 358 358 359 359 358
355 353 356 356 349 347 348 351 354 348 344 344 342 343 338 340 337 337 335 336 340 365 365 365 365 364 363 362 360 359 359 360 359 359 359 359 358 358 358 359 358 358 358
356 354 356 351 347 347 350 346 346 345 341 340 340 337 336 340 338 338 338 338 337 338 358 366 364 363 362 361 361 359 357 356 357 357 357 357 357 358 357 359 359 357 358
359 355 352 354 346 347 352 349 347 346 341 336 337 332 336 336 335 340 335 337 338 339 339 356 363 362 363 363 362 360 357 357 356 355 356 356 356 357 357 358 358 358 357
354 353 349 354 347 346 351 350 350 350 340 337 334 336 334 336 337 336 336 338 334 337 335 337 345 350 360 360 362 359 359 358 357 356 354 353 354 355 355 356 356 357 356
351 352 348 349 352 347 350 351 351 342 338 337 329 330 334 335 332 332 335 334 333 333 332 336 341 335 338 350 353 357 355 357 358 357 354 353 353 353 353 355 354 354 354
351 356 351 350 349 353 352 348 348 341 337 335 331 329 324 328 328 333 334 335 333 333 331 332 332 332 336 337 338 351 350 351 355 356 355 354 353 352 352 352 352 352 354
356 354 354 350 351 355 351 350 346 340 330 333 335 328 324 319 325 331 332 330 328 329 328 329 327 328 330 335 339 340 349 349 351 352 353 354 353 353 352 351 350 349 353
356 359 358 355 355 355 353 350 347 340 336 332 333 337 333 330 324 321 323 324 325 323 322 323 324 323 325 326 335 344 346 346 348 348 350 351 352 352 352 353 351 350 351
357 358 358 356 357 359 355 345 341 337 337 335 333 332 331 330 325 318 312 317 319 319 321 322 322 324 325 329 327 334 347 345 345 346 346 348 348 348 350 352 352 352 352
358 357 359 358 357 356 351 346 341 340 337 338 336 335 333 323 320 317 313 312 313 317 322 322 321 323 325 327 334 343 344 344 343 341 340 341 343 345 346 348 349 350 350
352 355 356 358 357 354 351 346 343 341 340 338 338 336 332 326 324 319 316 313 312 316 317 321 322 322 329 327 329 341 340 341 338 335 334 335 335 337 340 343 346 347 348
351 352 357 358 356 353 347 345 344 341 341 341 338 334 331 327 323 321 317 314 312 310 313 315 322 324 325 325 331 339 330 337 335 333 331 330 332 334 335 337 338 341 342
353 357 358 357 354 351 348 346 343 341 340 341 339 335 330 328 325 323 322 318 314 310 312 316 317 322 325 326 329 328 327 331 333 331 329 328 329 330 331 332 333 334 336
353 357 356 355 351 348 347 346 342 342 342 341 333 330 327 327 324 324 322 321 318 314 311 316 319 322 323 325 328 327 323 329 329 328 327 326 327 328 330 331 332 333 335
355 357 356 353 349 346 346 344 343 342 341 338 332 328 326 327 326 325 323 321 317 315 313 317 320 319 320 321 322 320 320 319 321 325 325 325 325 326 329 330 330 331 331
359 358 353 349 348 346 343 341 340 342 341 336 333 329 328 330 325 325 321 317 317 319 315 313 314 317 320 318 316 315 317 319 318 322 324 324 324 325 326 327 328 328 327
359 357 353 349 346 344 342 342 342 341 337 336 331 329 327 327 324 322 320 317 319 319 315 311 313 318 319 316 314 315 314 315 317 322 323 324 324 324 325 325 325 323 323
361 360 355 350 345 344 343 344 343 338 334 332 330 329 327 327 321 319 318 317 315 312 311 310 314 316 315 313 313 311 309 312 312 316 320 322 323 325 325 326 326 325 321
361 359 351 347 344 343 347 342 342 338 332 329 329 329 328 329 328 324 318 314 311 308 309 311 312 312 311 308 309 310 308 310 312 315 319 320 320 321 324 328 330 329 323
355 351 347 345 345 348 337 335 341 335 332 328 327 329 328 328 326 326 325 322 319 311 311 315 308 310 308 308 309 309 308 308 307 319 320 320 323 323 325 325 328 326 324
355 347 347 347 344 337 329 332 334 331 328 327 328 327 327 326 318 314 314 317 317 320 322 311 308 310 306 307 308 309 309 309 309 315 318 319 323 321 323 325 326 324 322
352 349 347 346 334 330 326 326 329 326 327 328 329 328 323 310 308 306 307 308 310 312 311 312 310 313 310 309 309 311 312 312 314 316 314 310 315 317 326 326 327 325 321
349 345 344 340 329 324 322 322 324 325 324 325 317 320 311 306 310 310 302 306 306 310 312 315 315 317 315 315 314 312 309 310 308 311 314 307 312 316 326 328 330 325 320
346 345 340 338 327 324 319 317 324 324 320 318 307 303 311 303 306 306 300 302 304 304 304 308 310 314 314 312 314 312 311 308 309 308 313 307 310 317 322 323 323 321 319
Wind_Speed
3 1 3 1 2 4 3 3 4 3 5 5 5 5 5 4 4 3 1 10 14 14 14 12 12 12 12 13 14 16 17 17 16 17 16 17 16 14 13 15 15 15 15
2 3 4 5 1 4 4 3 1 4 4 4 5 3 3 2 3 2 1 4 10 11 14 10 12 12 11 12 12 13 16 17 17 17 18 17 16 16 15 15 16 15 15
5 1 2 3 3 3 1 2 2 1 3 4 4 5 4 4 4 4 4 3 2 11 14 12 12 11 10 11 11 11 13 15 17 17 18 19 18 17 17 17 17 16 17
6 3 2 3 5 2 3 2 2 4 4 4 4 4 4 5 6 5 4 3 2 2 3 9 9 9 10 8 10 10 11 13 14 17 18 20 19 18 18 18 18 18 17
6 4 2 2 4 2 3 1 3 3 2 4 3 4 4 4 5 3 5 6 2 2 3 1 7 9 10 9 11 9 9 11 12 14 17 18 18 18 19 19 20 19 19
7 5 3 4 2 3 1 1 3 2 1 1 3 5 4 4 2 4 5 3 1 5 2 2 1 1 6 6 1 8 10 10 10 10 11 13 16 17 18 19 20 20 20
7 6 3 2 3 1 4 3 2 1 3 3 2 4 6 2 5 4 4 4 4 3 3 2 2 2 3 6 6 5 7 8 9 11 10 10 12 14 17 19 20 20 21
8 5 6 3 2 2 2 2 3 1 2 1 1 0 3 5 5 6 4 4 4 4 5 6 6 6 4 3 6 8 9 10 9 9 10 11 10 11 10 13 19 20 19
7 6 6 5 4 1 1 2 2 3 1 3 2 2 2 3 4 3 6 5 7 4 5 5 6 6 5 4 6 8 11 11 10 9 10 10 10 10 10 9 10 15 17
8 7 7 6 4 2 2 2 4 4 3 2 3 1 1 3 1 4 4 3 4 5 6 6 6 8 7 4 7 10 12 8 7 8 8 9 10 11 11 11 11 12 13
7 8 7 7 6 5 4 6 3 2 3 2 2 2 2 3 1 2 3 6 5 2 3 4 6 6 8 6 5 6 8 6 7 6 7 10 12 13 15 15 14 15 15
7 8 8 8 7 6 6 5 5 4 3 2 2 1 1 1 3 1 1 2 3 5 10 5 4 6 6 5 11 12 14 13 5 7 9 12 15 17 19 19 19 18 18
3 9 9 6 6 6 6 6 5 5 5 4 4 2 1 0 1 1 2 3 3 3 3 8 5 4 4 5 6 16 21 12 12 10 12 18 21 24 22 21 22 22 20
5 7 8 7 7 7 6 6 4 2 2 5 4 3 2 1 1 1 1 1 4 3 3 7 6 6 7 4 12 17 10 9 12 18 24 29 24 23 23 25 25 21 21
5 6 9 9 8 7 7 5 4 2 2 5 5 4 2 1 1 1 2 1 2 5 5 5 5 5 9 9 13 13 6 11 20 25 27 28 25 24 24 23 23 23 21
6 6 6 7 7 7 6 7 5 5 8 7 3 4 2 2 2 2 2 3 1 2 6 5 5 7 8 10 14 14 16 24 19 22 28 28 25 25 24 23 23 22 20
7 7 10 10 10 7 7 6 7 3 5 7 3 3 3 3 1 2 2 2 2 2 4 6 5 9 8 10 11 15 16 17 14 23 26 28 26 24 22 23 21 22 23
6 8 9 9 7 7 4 6 5 3 7 5 5 4 4 1 3 2 1 3 3 3 1 11 7 8 9 7 12 19 15 14 15 23 27 27 26 24 21 19 20 21 22
6 9 10 10 9 6 5 3 5 6 3 5 6 4 3 1 2 1 2 3 3 3 4 4 8 5 6 9 14 18 17 16 13 25 25 26 24 23 20 20 20 20 21
6 7 10 9 6 2 3 4 4 2 2 3 3 4 2 1 2 2 3 2 4 4 4 4 5 6 6 9 12 16 18 12 14 14 18 17 19 19 19 16 18 19 19
7 8 8 6 5 3 3 6 7 7 5 3 2 2 2 3 4 6 2 2 4 3 3 4 4 4 7 10 14 11 12 15 13 12 6 6 6 6 7 13 16 20 19
7 8 8 8 7 5 9 7 5 6 4 5 1 3 2 6 6 5 3 8 6 3 5 3 3 6 6 8 11 12 11 13 13 6 12 10 6 7 6 6 10 16 20
9 9 8 7 5 6 5 8 14 6 4 5 2 2 2 4 6 5 7 8 9 12 9 3 5 5 5 4 9 17 16 14 13 12 12 6 3 7 6 7 14 15 18
9 9 7 8 8 3 10 7 9 6 3 4 4 2 3 6 6 5 6 6 7 7 7 6 6 8 7 6 5 9 14 12 11 8 10 6 10 9 7 7 13 13 16
9 6 7 6 6 6 6 8 7 4 2 2 6 8 8 6 2 4 5 6 7 7 9 14 11 13 13 13 8 9 15 13 13 10 8 7 5 7 3 4 5 11 15
4 7 4 6 9 9 5 9 3 2 4 5 5 6 9 6 4 4 3 4 6 7 7 10 9 6 8 8 7 5 10 12 10 7 11 9 6 4 3 4 6 8 8
Wind_Direction
236 228 281 279 238 178 210 206 207 265 288 303 292 246 245 285 294 304 172 202 206 212 218 218 223 227 216 225 222 220 221 223 219 217 220 221 221 221 227 221 217 219 222
261 286 32 337 156 162 193 205 202 289 307 305 351 346 325 309 312 352 184 219 225 224 227 225 227 225 226 229 234 232 229 229 226 219 218 220 221 220 220 222 226 223 226
235 285 290 309 279 234 266 346 337 300 28 346 348 344 336 322 320 304 313 294 269 244 232 230 236 230 237 240 242 244 241 233 232 227 222 221 217 220 220 218 222 228 225
209 217 273 220 244 309 58 124 117 31 357 345 313 321 341 329 315 303 280 262 254 292 265 238 241 241 250 262 252 251 257 261 252 243 228 234 220 219 221 218 220 221 225
211 206 182 197 238 65 105 117 53 71 323 330 316 323 329 312 310 299 334 313 308 18 75 284 227 229 243 266 270 256 264 271 266 261 249 238 233 225 220 219 219 220 224
190 212 182 195 252 81 126 90 88 349 247 257 332 328 310 304 347 359 332 309 20 83 64 53 82 287 241 248 281 244 264 274 274 275 273 261 255 243 233 226 221 221 221
188 204 206 124 275 292 209 170 105 33 316 353 18 337 314 53 67 14 343 346 48 350 345 7 158 244 247 220 223 256 266 263 255 251 253 250 260 258 251 238 230 222 224
187 173 176 220 231 234 42 148 140 273 283 26 227 196 337 322 345 348 334 349 11 352 338 349 338 311 290 256 243 239 263 274 271 254 246 248 249 258 265 267 249 236 230
181 183 191 206 226 207 254 154 130 162 237 320 352 187 346 249 342 329 329 338 7 357 354 331 333 334 319 282 263 259 260 260 240 257 252 249 250 249 255 259 270 262 250
190 190 191 197 211 216 175 188 177 162 125 255 326 351 165 177 236 319 333 330 356 351 334 334 330 316 302 294 280 266 252 254 269 279 263 255 253 252 248 248 246 246 248
191 189 191 196 202 210 173 147 154 173 156 172 179 331 335 347 59 138 283 326 333 293 292 305 302 318 309 291 306 289 299 330 313 289 291 281 276 262 251 243 237 235 241
196 195 196 199 204 176 160 167 168 193 205 197 192 248 170 165 301 340 327 285 243 310 319 334 316 299 310 343 351 346 335 331 329 339 323 314 302 286 270 253 242 236 238
187 204 195 180 176 162 165 164 162 188 209 195 204 227 118 196 221 283 112 279 276 290 308 306 311 315 343 329 340 345 324 319 326 320 308 298 290 277 271 267 255 246 241
209 204 199 172 162 168 162 167 175 148 307 274 236 189 193 301 72 142 224 32 314 305 298 290 302 336 332 342 318 317 310 308 316 308 303 297 286 277 272 263 249 243 244
234 193 175 167 167 164 171 165 156 140 196 262 247 220 152 222 99 349 36 228 213 310 306 301 318 316 326 324 314 309 310 287 286 291 291 285 284 277 267 259 256 249 233
221 161 161 156 165 171 173 167 157 163 183 210 196 126 135 217 300 2 302 292 314 252 305 314 309 318 316 311 313 316 306 299 285 284 285 285 281 273 263 254 250 239 229
203 173 168 164 179 181 188 161 183 189 234 156 186 176 225 198 256 260 322 347 307 280 286 309 309 313 304 307 315 313 305 306 299 293 286 282 279 275 265 250 245 237 235
198 165 162 167 169 195 177 195 188 212 235 169 185 207 220 248 283 314 122 292 271 285 310 313 313 312 307 308 314 315 313 305 296 292 287 280 274 270 262 250 239 232 230
189 160 161 174 187 206 169 192 181 248 179 182 181 188 188 253 328 309 299 316 325 314 304 292 304 293 296 320 316 317 316 304 298 298 288 277 267 266 257 248 235 225 224
192 168 167 175 170 163 119 202 243 170 176 185 177 160 187 97 307 288 39 33 320 312 294 285 290 293 306 322 314 323 317 322 311 301 293 280 271 267 267 259 233 220 213
200 151 147 137 117 114 200 203 199 168 188 197 143 118 72 86 96 101 114 300 303 296 299 294 289 306 313 326 336 324 307 308 313 289 277 274 255 254 253 249 237 220 212
139 121 128 130 166 201 207 212 168 143 151 134 198 2 326 104 122 116 44 349 333 309 297 292 309 305 298 316 337 325 319 326 328 318 316 299 287 267 248 231 221 213 211
125 132 145 150 176 142 86 116 120 120 154 136 152 147 205 87 64 35 349 345 336 329 319 307 305 303 278 306 317 344 336 324 316 310 315 289 298 275 262 248 229 218 208
118 142 162 167 145 134 119 65 110 143 129 155 214 244 83 84 53 17 352 352 335 312 310 311 278 279 242 270 316 326 323 311 311 326 18 318 316 291 288 254 231 216 202
150 152 167 124 118 124 142 159 115 127 219 258 62 85 100 92 72 29 27 345 333 308 314 306 293 293 256 273 313 333 350 341 340 329 24 321 287 302 305 340 276 215 190
153 99 118 123 139 143 136 127 130 114 87 103 89 77 81 89 65 41 17 333 323 296 317 319 330 327 300 307 332 330 341 347 340 329 358 329 301 281 328 22 25 50 84